Location: Recife
(8.0585°S, 34.8848°W)
Time: 22:20:32
(UTC-03:00)

A-11 Canister half - Pass Details

Date: 22 April 2026
Orbit: 1523 x 1684 km, 47.3° (Epoch: 19 May)

Event Time Altitude Azimuth Distance (km) Brightness Sun altitude
Rises 18:31:06 0° 218° (SW) 4,701 11.9 -19.5°
Reaches altitude 10° 18:34:07 10° 216° (SW) 3,730 11.3 -20.2°
Maximum altitude 18:43:35 78° 130° (SE) 1,613 8.9 -22.5°
Enters shadow 18:52:29 13° 45° (NE) 3,568 10.6 -24.7°
